ARIANE 5 R/B, 42693

Orbit data source: Space-Track

ARIANE 5 R/B, 42693 is space debris in HEO originally from a launch on Thu, 04 May 2017 UTC launched from the French Guiana (FRGUI). Debris objects in space refer to the collection of defunct objects orbiting the Earth. Examples of debris include non-operational satellites, rocket bodies, and fragments generated from explosions, collisions, or faulty payload assembly.

Loading next visibility...
ARIANE 5 R/B details
Identifier
42693, 2017-023C
Orbit
HEO
Last TLE update9 hours ago
Origin
Flag of FRArianespace (FR)
ManufacturerAirbus Safran
MissionSpacecraft
Bus & MotorESC-A, Unknown motor
Mass~5,000 kg wet, ~5,000 kg dry
Launch date (UTC)
2017-05-04 (8 years ago)
Launch vehicleUnknown
Launch site
French Guiana (FRGUI)
Object type
Payload
Rocket body
Debris
Shape & HBRCyl + 1 Nozzle, 7 m
Radar Cross Section41.627 m², Large (>1 m²)

Expand to show TLE details & history

TLE from 9 hours ago
0 ARIANE 5 R/B
1 42693U 17023C   24361.13944332  .00013231  00000-0  22432-2 0  9997
2 42693   3.7218 268.3159 7183536  22.5308 357.3092  2.41582087 65034
Epoch: 2024-12-26T03:20Z
Definitive object data (Epoch: 2024-12-26T03:20:47.902Z)
Latitude-0°
Longitude123.20387°
Altitude425.689 km
Speed10.008 km/s
True Right ascension17h 54m 06s
True Declination0° 00' 00"
Sunlit
Object was in daylight at TLE epoch
Visualization TLE readout
Latitude-3.37395°
Longitude7.27912°
Altitude18,086.223 km
Speed3.949 km/s
Apparent Right ascension09h 54m 22s
Apparent Declination-15° 34' 04"
Sunlit
Object is in daylight
Visualization observer readout
Local Sidereal Time11:15:58
Azimuth203.155° SW
Elevation31.352°
Doppler factor1
Orbital elements
Apogee altitude33,946.833 km
Perigee altitude231.319 km
Semi-major axis23,467.213 km
Eccentricity0.7183536
Inclination3.7218°
RAAN268.3159°
Arg. of periapsis22.5308°
True anomaly336.93445°
Mean anomaly357.3092°
Eccentric anomaly350.55513°
Mean motion0.60374 °/min
BSTAR0.0022432
Orbital period596.28 mins
Loading maneuver chart data...
Loading historical data...
Loading historical data...
Loading historical data...
Loading historical data...
Loading historical data...
Loading historical data...
Loading historical data...
Other satellites on launch #23 in the year 2017 (2017-05-04 UTC)

ARIANE 5 R/B Visibility forecast

Observer location: undefined°, undefined

Span
Click to sort rows by Start time (UTC) header in descending order
Start Az.
Max El. time (UTC)
Max El. Az.
Max El.
End time (UTC)
End Az.
61 mins2024-12-26 11:54:32.936Z203.142° SW2024-12-26 11:54:32.936Z203.142° SW27.471°2024-12-26 12:55:32.936Z156.666° SSE
296 mins2024-12-27 03:09:32.936Z108.556° ESE2024-12-27 06:30:32.936Z125.648° SE20.174°2024-12-27 08:05:32.936Z121.909° SE
|